[[{"header":{"parameterUnit":"m.s-1","parameterCategory":1,"la1":30.2991,"la2":30.254,"lo1":-89.0895,"lo2":-89.0444,"dy":0.0017,"dx":0.0017,"nx":28,"ny":28,"refTime":"2023-07-23T09:00:00:Z","depth":0,"parameterNumber":2,"parameterNumberName":"U-component_of_WINDS"},"data":[0,0,0,0,0,0,0,0,0,0,0,0,0,0,0,0,0,0,0,0,0,0,0,0,0,0,0,0,0,0,0,0,0,0,0,0,0,0,0,0,0,0,0,0,0,0,0,0,0,0,0,0,0,0,0,0,0,0,1.7911,1.7912,0,1.8012,1.8013,1.8014,1.8026,1.8025,1.8024,1.8023,1.8129,1.8133,1.8136,0,0,0,0,0,0,0,0,0,0,0,0,0,1.7729,1.7732,1.7911,1.7912,1.7913,1.8012,1.8013,1.8015,1.8026,1.8025,1.8024,1.8023,1.8128,1.8132,1.8137,0,0,0,0,0,0,0,0,0,0,0,0,0,1.7817,1.7733,1.791,1.7931,1.7934,1.8012,1.8013,1.8015,1.8027,1.8025,1.8024,1.8022,1.8126,1.8132,1.8137,1.8203,0,0,1.8155,1.8157,0,0,0,0,0,0,0,0,1.7812,1.7823,1.7927,1.793,1.7933,1.8005,1.7988,1.8078,1.8027,1.7991,1.8023,1.8021,1.8089,1.8098,1.812,1.8208,1.8212,1.8155,1.8159,1.8161,1.8163,0,0,0,0,0,0,0,1.7806,1.7819,1.7951,1.7928,1.7932,1.7935,1.7946,1.8005,1.8048,1.7994,1.7995,1.8007,1.8091,1.8115,1.8123,1.8214,1.8155,1.816,1.8164,1.8166,1.8359,1.8361,0,0,0,0,0,0,1.7796,1.7814,1.7948,1.7954,1.7867,1.794,1.7952,1.7983,1.8047,1.8055,1.8008,1.8007,1.8106,1.8116,1.8126,1.8207,1.8161,1.8166,1.817,1.8358,1.836,1.8362,0,0,0,0,0,0,1.7792,1.7807,1.7943,1.7884,1.7902,1.7945,1.798,1.7986,1.801,1.8058,1.8065,1.8025,1.8105,1.8119,1.8183,1.821,1.8169,1.8174,1.8356,1.8358,1.8361,1.8368,0,0,0,0,0,0,1.7786,1.7806,1.7831,1.7885,1.7905,1.7998,1.7981,1.7989,1.802,1.8019,1.8075,1.8083,1.8105,1.8175,1.8189,1.8218,1.8178,1.8353,1.8357,1.836,1.8365,1.837,1.8374,0,0,0,0,0,1.778,1.7829,1.7832,1.7848,1.7937,1.8,1.8011,1.8035,1.8022,1.8047,1.8078,1.8081,1.8205,1.8181,1.8197,1.8228,1.8352,1.8356,1.836,1.8363,1.8369,1.8374,0,0,0,0,0,0,1.7778,1.7837,1.784,1.7908,1.7949,1.8001,1.8034,1.804,1.8086,1.8084,1.8112,1.8124,1.8188,1.8215,1.8187,1.8294,1.8277,1.8285,1.8274,1.8281,1.8285,1.8277,1.8183,0,0,0,0,0,1.7785,1.7831,1.788,1.7935,1.7955,1.7991,1.802,1.8034,1.8077,1.8095,1.813,1.8172,1.8221,1.8252,1.83,1.8369,1.8382,1.8398,1.8403,1.8406,1.8412,1.8451,1.8459,1.8375,1.8375,1.8375,0,0,1.7801,1.7839,1.7866,1.7936,1.7969,1.8016,1.8006,1.8056,1.8091,1.8103,1.8166,1.8193,1.8242,1.8309,1.8341,1.8334,1.8438,1.8411,1.8414,1.8418,1.8456,1.8464,1.8471,1.8377,1.8377,1.8377,0,0,1.7854,1.7887,1.7937,1.797,1.802,1.8043,1.8055,1.8107,1.8125,1.8189,1.8198,1.8241,1.8324,1.8359,1.8387,1.8453,1.8458,1.8468,1.8492,1.8529,1.8536,1.8542,1.8565,1.8573,1.8473,1.8473,1.8473,0,1.7868,1.7938,1.7961,1.8011,1.8042,1.8053,1.8104,1.8135,1.8198,1.8219,1.821,1.8314,1.8349,1.8424,1.844,1.8463,1.8477,1.8461,1.8533,1.8539,1.8545,1.8567,1.8576,1.8474,1.8474,1.8474,1.8474,0,1.7952,1.8001,1.8035,1.8095,1.8129,1.8179,1.821,1.8243,1.8254,1.8279,1.8343,1.8385,1.844,1.8459,1.8472,1.8537,1.8531,1.8527,1.851,1.8553,1.8575,1.8584,1.8475,1.8475,1.8475,1.8475,0,0,1.8007,1.8078,1.809,1.8117,1.8173,1.8212,1.8262,1.8316,1.8343,1.8386,1.8429,1.8499,1.8496,1.8528,1.8544,1.8577,1.8626,1.857,1.8571,1.8578,1.8701,1.8703,1.8712,1.863,1.8632,1.8633,1.8696,0,1.8066,1.8155,1.8178,1.8254,1.83,1.8312,1.8356,1.8395,1.8419,1.8462,1.8489,1.8538,1.853,1.855,1.8583,1.8613,1.8651,1.8609,1.8671,1.8673,1.8658,1.8724,1.8727,1.8784,1.8705,1.8707,1.8708,0,1.8147,1.819,1.8271,1.8321,1.8341,1.838,1.8431,1.8471,1.8516,1.8532,1.8567,1.858,1.8634,1.8615,1.8689,1.866,1.8687,1.8706,1.8709,1.8715,1.8693,1.8732,1.8803,1.8812,1.8721,1.872,1.8719,0,1.8178,1.8257,1.8316,1.8339,1.8398,1.8425,1.8451,1.8495,1.8525,1.857,1.8591,1.8641,1.8669,1.8708,1.8735,1.8718,1.8807,1.879,1.8822,1.8821,1.884,1.8839,1.8916,1.8858,1.8858,1.8857,1.8857,0,1.8241,1.829,1.833,1.8366,1.8422,1.8447,1.8502,1.8528,1.8567,1.8608,1.8622,1.8661,1.8694,1.8738,1.8759,1.8817,1.883,1.8844,1.8849,1.8843,1.8841,1.8861,1.8857,1.886,1.8859,1.8859,1.8858,0,1.8285,1.8314,1.8379,1.8429,1.8443,1.8482,1.8525,1.8561,1.8586,1.8639,1.8653,1.8692,1.8744,1.8774,1.884,1.8854,1.8919,1.8923,1.8904,1.8906,1.8936,1.8932,1.9029,1.9043,1.8975,1.8975,1.8976,0,1.8324,1.8362,1.8416,1.8444,1.8471,1.8517,1.8548,1.8574,1.8607,1.866,1.869,1.8742,1.8786,1.8869,1.8904,1.8954,1.8959,1.8989,1.8967,1.8959,1.8959,1.8957,1.896,1.8993,1.8994,1.8994,1.8994,0,1.8389,1.8401,1.8445,1.8494,1.8531,1.8571,1.8611,1.8634,1.8667,1.8703,1.8755,1.8789,1.8856,1.8909,1.8962,1.899,1.8998,1.9001,1.9011,1.9005,1.8992,1.8999,1.8914,1.8999,1.8999,1.8998,1.8998,1.8998,1.8431,1.8465,1.8508,1.8557,1.859,1.8627,1.8662,1.8691,1.8736,1.8791,1.8805,1.8861,1.8905,1.8977,1.9006,1.9051,1.9046,1.906,1.9064,1.9067,1.9068,1.8985,1.9061,1.9061,1.9061,1.9061,1.906,0,1.8497,1.8525,1.8569,1.8624,1.8662,1.8666,1.871,1.8742,1.8791,1.8831,1.8873,1.8934,1.8985,1.9024,1.9076,1.9104,1.9109,1.9117,1.9115,1.9121,1.9069,1.9055,1.9112,1.9112,1.9112,1.9112,1.9112,1.9112,1.8535,1.8593,1.861,1.8684,1.8712,1.8766,1.8791,1.8826,1.8858,1.8925,1.8967,1.8991,1.9031,1.9086,1.9133,1.9143,1.9162,1.9169,1.9179,1.913,1.9125,1.912,1.9106,1.9173,1.9173,1.9227,1.9228,1.9228]},{"header":{"parameterUnit":"m.s-1","parameterCategory":1,"la1":30.2991,"la2":30.254,"lo1":-89.0895,"lo2":-89.0444,"dy":0.0017,"dx":0.0017,"nx":28,"ny":28,"refTime":"2023-07-23T09:00:00:Z","depth":0,"parameterNumber":3,"parameterNumberName":"V-component_of_WINDS"},"data":[0,0,0,0,0,0,0,0,0,0,0,0,0,0,0,0,0,0,0,0,0,0,0,0,0,0,0,0,0,0,0,0,0,0,0,0,0,0,0,0,0,0,0,0,0,0,0,0,0,0,0,0,0,0,0,0,0,0,1.0209,1.0208,0,1.016,1.0159,1.0158,1.011,1.011,1.0109,1.0108,1.0058,1.0057,1.0056,0,0,0,0,0,0,0,0,0,0,0,0,0,1.026,1.0259,1.0209,1.0208,1.0208,1.016,1.0159,1.0158,1.011,1.011,1.0109,1.0108,1.0058,1.0057,1.0056,0,0,0,0,0,0,0,0,0,0,0,0,0,1.0227,1.0259,1.0209,1.0178,1.0175,1.016,1.0159,1.0158,1.011,1.011,1.0109,1.0108,1.0058,1.0057,1.0056,1.0068,0,0,1.0053,1.0052,0,0,0,0,0,0,0,0,1.0229,1.0225,1.0183,1.018,1.0176,1.014,1.0158,1.0128,1.0111,1.0135,1.0108,1.0107,1.0086,1.0082,1.0075,1.0065,1.0063,1.0053,1.0052,1.0051,1.0051,0,0,0,0,0,0,0,1.0231,1.0227,1.0189,1.0183,1.0178,1.0166,1.016,1.0152,1.0116,1.0133,1.0129,1.0124,1.0084,1.0077,1.0074,1.0063,1.0053,1.0052,1.0051,1.005,1.0057,1.0058,0,0,0,0,0,0,1.0238,1.0229,1.0191,1.0188,1.0201,1.0166,1.0159,1.0153,1.0116,1.011,1.0125,1.0122,1.0079,1.0075,1.0072,1.0082,1.0051,1.005,1.005,1.0056,1.0057,1.0058,0,0,0,0,0,0,1.024,1.0235,1.0193,1.0207,1.0201,1.0166,1.0159,1.0152,1.0145,1.011,1.0103,1.0124,1.0078,1.0073,1.0069,1.0079,1.005,1.0049,1.0055,1.0057,1.0058,1.0103,0,0,0,0,0,0,1.0241,1.0236,1.0241,1.0208,1.0201,1.0191,1.0159,1.0152,1.0143,1.0139,1.0108,1.0102,1.0077,1.0071,1.0067,1.0077,1.0048,1.0054,1.0056,1.0057,1.01,1.0105,1.011,0,0,0,0,0,1.0243,1.0256,1.0241,1.0237,1.0206,1.0192,1.0188,1.0159,1.0144,1.0148,1.0125,1.0103,1.0078,1.0071,1.0067,1.0076,1.0053,1.0055,1.0057,1.0098,1.0104,1.011,0,0,0,0,0,0,1.0292,1.0251,1.0235,1.0237,1.0218,1.0184,1.0188,1.0167,1.0153,1.0149,1.0114,1.0107,1.0106,1.0091,1.0082,1.0084,1.0063,1.0064,1.0095,1.0101,1.0105,1.0109,1.0047,0,0,0,0,0,1.0303,1.0295,1.026,1.0266,1.0257,1.0224,1.0217,1.0197,1.0176,1.0168,1.0145,1.0125,1.0113,1.0106,1.0093,1.0097,1.0089,1.0101,1.0106,1.011,1.0112,1.0111,1.0116,1.0065,1.0065,1.0065,0,0,1.0325,1.0302,1.03,1.0275,1.0258,1.025,1.0218,1.0212,1.0206,1.0167,1.0161,1.0143,1.0119,1.0118,1.0117,1.0105,1.0124,1.0113,1.0117,1.0116,1.0114,1.0119,1.0123,1.0066,1.0066,1.0066,0,0,1.0362,1.0345,1.0346,1.033,1.0304,1.0282,1.0282,1.0251,1.0237,1.023,1.02,1.0192,1.0172,1.0155,1.0144,1.0172,1.015,1.0169,1.0195,1.0194,1.0198,1.0202,1.0211,1.0214,1.0171,1.0171,1.0171,0,1.0394,1.0382,1.035,1.0345,1.0334,1.0298,1.0299,1.0284,1.0256,1.0249,1.0236,1.0208,1.0189,1.0183,1.019,1.0183,1.0181,1.0173,1.02,1.0203,1.0206,1.0214,1.0218,1.0173,1.0173,1.0173,1.0172,0,1.0421,1.0413,1.0417,1.039,1.0379,1.0378,1.0345,1.0338,1.0317,1.0296,1.0288,1.0264,1.0245,1.0241,1.0222,1.0232,1.0225,1.0207,1.0184,1.0214,1.0221,1.0224,1.0177,1.0176,1.0175,1.0174,0,0,1.0489,1.0443,1.0445,1.0431,1.0399,1.0392,1.0387,1.0368,1.0362,1.0343,1.0337,1.032,1.0302,1.0289,1.0267,1.0267,1.0289,1.0248,1.0247,1.0256,1.0297,1.0311,1.0315,1.0274,1.0274,1.0274,1.0298,0,1.052,1.0511,1.0481,1.048,1.0471,1.0435,1.0431,1.041,1.039,1.0378,1.0355,1.0343,1.0321,1.0313,1.0311,1.0287,1.0296,1.0285,1.0267,1.0267,1.0275,1.0319,1.0334,1.0358,1.0301,1.0301,1.0302,0,1.0556,1.0539,1.0537,1.0503,1.0498,1.0495,1.0474,1.0464,1.0439,1.0424,1.0408,1.0383,1.0375,1.0354,1.0341,1.0334,1.0325,1.0311,1.0312,1.0309,1.0287,1.0317,1.0365,1.0368,1.0306,1.0306,1.0305,0,1.0605,1.0581,1.0576,1.0566,1.0527,1.0525,1.0509,1.0483,1.0472,1.0453,1.0445,1.0426,1.0415,1.04,1.0369,1.0357,1.0359,1.0336,1.0346,1.0347,1.0349,1.0349,1.0396,1.0343,1.0343,1.0343,1.0343,0,1.0643,1.0643,1.0597,1.0595,1.0593,1.0558,1.0557,1.0537,1.0514,1.0505,1.0473,1.0465,1.0426,1.0413,1.0389,1.0381,1.0377,1.0364,1.0357,1.0367,1.0368,1.0361,1.0358,1.0344,1.0344,1.0344,1.0343,0,1.0698,1.0667,1.066,1.0623,1.0613,1.0613,1.0581,1.0576,1.0553,1.0543,1.0538,1.0501,1.0485,1.0453,1.0428,1.0411,1.0409,1.0398,1.0417,1.0413,1.0424,1.0424,1.0468,1.0471,1.0417,1.0418,1.0418,0,1.0725,1.0724,1.0686,1.0678,1.0663,1.0651,1.0639,1.0604,1.0593,1.0563,1.0562,1.0542,1.0525,1.05,1.0471,1.0451,1.0439,1.0455,1.0436,1.0444,1.0438,1.0438,1.0437,1.046,1.0461,1.0462,1.0462,0,1.0775,1.0759,1.0744,1.0723,1.0711,1.0693,1.0673,1.0668,1.0628,1.0617,1.06,1.0586,1.0559,1.054,1.0515,1.0497,1.0473,1.0468,1.0469,1.0479,1.049,1.0483,1.0429,1.0468,1.0467,1.0467,1.0466,1.0466,1.0816,1.0812,1.0785,1.0769,1.075,1.0732,1.0725,1.07,1.0685,1.066,1.064,1.0624,1.0596,1.056,1.0543,1.0529,1.0517,1.0519,1.052,1.0521,1.0524,1.0492,1.0525,1.0524,1.0524,1.0524,1.0524,0,1.0863,1.0843,1.0829,1.0802,1.0789,1.0766,1.0742,1.0732,1.0719,1.0695,1.0679,1.0657,1.0638,1.0606,1.0584,1.0578,1.0566,1.0574,1.0574,1.057,1.0536,1.0537,1.0584,1.0584,1.0584,1.0584,1.0584,1.0584,1.0887,1.088,1.086,1.0843,1.0822,1.0806,1.0794,1.0777,1.0757,1.0735,1.0719,1.0698,1.0671,1.0645,1.0626,1.0617,1.061,1.0621,1.0608,1.0578,1.0572,1.0567,1.0568,1.062,1.062,1.0643,1.0643,1.0643]}]]